www.pogodaiklimat.ru

Погода и климат >> Архив погоды >> Индия >> Karwar


ПОГОДА в Karwar

  • Прогноз погоды в Karwar
  • Монитор погоды в Karwar
  • Климат города

АРХИВ ПОГОДЫ в Karwar

Время (UTC), дата Ветер
(напр.,м/с)
 
Видим.   Явления Облачность Т
(С)
Тd
(С)
f
(%)
Тe
(С)
Тes
(С)
Комфортность P
(гПа)
Po
(гПа)
Тmin
(С)
Tmax
(С)
R
(мм)
R24
(мм)
S
(см)
03 14.05 З 1 10 км 10/4 300 м
[St As trans]
+29.2 +25.8 82 +44 +45 опасность
перегрева
1010.8 1010.3 +27.7 +36.0
06 14.05 З 1 10 км 6/4 300 м
[St Ac trans]
+33.4 +25.6 64 +48 +60 опасность
перегрева
1010.4 1009.9
09 14.05 СЗ 2 10 км 8/5 300 м
[St Ac trans]
+36.4 +26.8 58 +54 +59 опасность
перегрева
1008.2 1007.7
12 14.05 З 2 10 км 5/3 300 м
[St Ac trans]
+32.6 +25.3 66 +47 +49 опасность
перегрева
1007.7 1007.2 +36.8
03 15.05 СЗ 1 4000 м в посл. час морось {дождь} 8/4 300 м
[Sc Ac trans Ci fib]
+27.0 +23.2 80 +36 +39 очень
душно
1010.0 1009.5 +24.3 +36.8 2
06 15.05 З 2 10 км {дождь, морось} 6/4 300 м
[Sc Ac trans]
+35.0 +23.2 51 +46 +56 опасность
перегрева
1009.1 1008.6
09 15.05 СЗ 2 10 км 4/3 300 м
[Sc diur, vesp Ac trans]
+36.4 +25.9 55 +52 +63 опасность
перегрева
1007.0 1006.5
12 15.05 З 2 10 км 3/3 600 м
[Sc diur, vesp]
+33.4 +26.8 68 +51 +52 опасность
перегрева
1005.9 1005.4 +36.8
03 16.05 штиль 0 10 км 5/3 600 м
[Sc diur, vesp Ac trans]
+30.8 +25.7 74 +45 +50 опасность
перегрева
1008.2 1007.7 +27.5 +36.8
06 16.05 З 2 10 км 3/3 600 м
[Sc diur, vesp]
+34.8 +25.3 58 +49 +65 опасность
перегрева
1008.5 1008.0
09 16.05 ЮЗ 2 10 км 3/3 600 м
[Sc diur, vesp]
+36.4 +26.8 58 +54 +66 опасность
перегрева
1006.9 1006.4
12 16.05 З 2 10 км 5/3 600 м
[Sc diur, vesp Ac trans]
+34.0 +25.6 62 +49 +51 опасность
перегрева
1006.1 1005.6 +36.6
03 17.05 штиль 0 10 км 3/3 600 м
[Sc diur, vesp]
+28.4 +23.1 73 +38 +44 очень
душно
1008.0 1007.5 +25.3 +36.6
06 17.05 СЗ 2 10 км 5/3 300 м
[Sc diur, vesp Ac trans]
+34.4 +24.8 57 +47 +60 опасность
перегрева
1008.3 1007.8
09 17.05 ЮЗ 2 10 км 5/3 300 м
[Sc diur, vesp Ac trans]
+35.4 +26.0 58 +51 +62 опасность
перегрева
1007.0 1006.5
12 17.05 ЮЗ 2 10 км 8/4 300 м
[St Ac trans Ci fib]
+33.4 +26.8 68 +51 +52 опасность
перегрева
1005.7 1005.2 +35.8
03 18.05 штиль 0 10 км 10/3 300 м
[Cb calv Ac und]
+29.2 +24.3 75 +41 +43 опасность
перегрева
1009.0 1008.5 +27.1 +35.8
06 18.05 СЗ 2 10 км 4/3 600 м
[Sc diur, vesp Ac trans]
+34.4 +26.1 62 +50 +64 опасность
перегрева
1008.6 1008.1
09 18.05 З 2 10 км 6/3 600 м
[Sc diur, vesp Ac trans Ci fib]
+34.2 +25.8 62 +50 +60 опасность
перегрева
1007.1 1006.6
12 18.05 ЮЗ 2 10 км 5/3 600 м
[Sc diur, vesp Ac trans]
+32.6 +25.6 67 +48 +49 опасность
перегрева
1006.6 1006.1 +35.4
03 19.05 ЮЗ 2 10 км 8/3 300 м
[Frnb Ac trans Ci fib]
+31.2 +26.2 75 +47 +50 опасность
перегрева
1008.5 1008.0 +28.1 +35.4
06 19.05 СЗ 1 10 км 5/3 600 м
[St Ac trans]
+33.6 +24.5 59 +46 +60 опасность
перегрева
1008.5 1008.0
09 19.05 ЮЗ 2 10 км 4/3 600 м
[Sc diur, vesp Ac trans]
+35.2 +26.0 59 +51 +63 опасность
перегрева
1006.8 1006.3
12 19.05 З 2 10 км 1/1 600 м
[Cu hum]
+33.4 +25.9 65 +49 +51 опасность
перегрева
1005.8 1005.3 +35.4
03 20.05 штиль 0 4000 м гроза, ливневой дождь 10/3 300 м
[Cb calv As op]
+23.2 +21.7 91 +31 +33 очень
душно
1010.5 1010.0 +22.1 +35.4 17
06 20.05 штиль 0 10 км {гроза, дождь} 10/3 300 м
[Frnb Ac trans Ci fib]
+25.8 +23.8 89 +35 +45 очень
душно
1009.3 1008.8
09 20.05 ЮЗ 2 10 км 6/3 600 м
[Sc diur, vesp Ac trans Ci fib]
+31.2 +25.0 70 +45 +55 опасность
перегрева
1007.5 1007.0
12 20.05 СЗ 2 10 км 6/3 600 м
[Sc diur, vesp Ac trans Ci fib]
+30.8 +25.4 73 +45 +46 опасность
перегрева
1007.0 1006.5 +33.2

 

Местоположение метеостанции Karwar (Karnataka, Индия): широта 14.78 долгота 74.13 высота над уровнем моря 4 м.

В архиве по умолчанию представлена погода в Karwar за последнюю неделю. Архивные данные за месяц целиком и за предыдущие месяцы, начиная с января 2011 года, Вы можете получить, выбрав интересующий диапазон дат из раскрывающегося списка и нажав кнопку "Ввод!".


*Определитесь, кто Вы:
робот инопланетянин человек

Внимание! Время в таблицах - всемирное. Для получения местного времени необходимо прибавить поправку, которая в Karwar равна 5.5 ч.

Смотрите также архив погоды в соседних городах и на ближайших метеорологических станциях:

Погода в Honavar (Karnataka, Индия) (65 км)
Погода в Mormugao (Goa, Индия) (80 км)
Погода в Panjim (Goa, Индия) (85 км)
Погода в Shirali (Karnataka, Индия) (90 км)
Погода в Dharwad (Karnataka, Индия) (120 км)
Погода в Belgaum (Karnataka, Индия) (127 км)
Погода в Belgaum Airport (Karnataka, Индия) (130 км)
Погода в Vengurla (Maharashtra, Индия) (133 км)
Погода в Haveri (Karnataka, Индия) (137 км)
Погода в Agumbe Emo (Karnataka, Индия) (175 км)

Пояснения к столбцам:

Ветер - указаны скорость ветра в м/с - средняя за 10 мин, порывы в срок и между сроками (в фигурных скобках) и направление, откуда дует ветер: С - северный, СВ - северо-восточный, В - восточный, ЮВ - юго-восточный, Ю - южный, ЮЗ - юго-западный, З - западный, СЗ - северо-западный.
Видимость - горизонтальная дальность видимости в метрах или километрах. При видимости от 1 до 10 км при отсутствии осадков обычно наблюдается дымка, при ухудшении видимости до 1 км и менее - туман. В сухую погоду видимость может ухудшаться дымом, пылью или мглою.
Явления - указаны атмосферные явления, наблюдавшиеся в срок или в последний час перед сроком; фигурными скобками обозначены явления, наблюдавшиеся между сроками (за 1-3 часа до срока); квадратными скобками обозначены град или гололедные отложения с указанием их диаметра в мм.
Облачность - указаны через наклонную черту общая и нижняя облачность в баллах и высота нижней границы облаков в метрах; квадратными скобками обозначены формы облаков: Ci - перистые, Cs - перисто-слоистые, Cc - перисто-кучевые, Ac - высококучевые, As - высокослоистые, Sc - слоисто-кучевые, Ns - слоисто-дождевые, Cu - кучевые, Cb - кучево-дождевые. Подробнее классификацию облаков см. в Атласе облаков (PDF).
T - Температура воздуха - температура, измеренная на высоте 2 м над землей.
Td - Температура точки росы - температура, при понижении до которой содержащийся в воздухе водяной пар достигнет насыщения.
f - Относительная влажность воздуха - влажноcть воздуха, измеренная на высоте 2 м над землей.
Te - Эффективная температура - температура, которую ощущает одетый по сезону человек в тени. Характеристика душности погоды. При расчете учитывается влияние влажности воздуха и скорости ветра на теплоощущения человека.
Tes - Эффективная температура на солнце - температура, которую ощущает человек, с поправкой на солнечный нагрев. Характеристика знойности погоды. Зависит от высоты солнца над горизонтом, облачности и скорости ветра. Ночью, в пасмурную погоду, а также при ветре 12 м/с и более поправка равна нулю.
P - Атмосферное давление - приведенное к уровню моря атмосферное давление.
Po - Атмосферное давление - измеренное на уровне метеостанции атмосферное давление.
Tmin - Минимальная температура - минимум температуры воздуха на высоте 2 м над землей.
Tmax - Максимальная температура - максимум температуры воздуха на высоте 2 м над землей.
R - Количество осадков - Количество выпавших осадков за период времени, мм. При наведении курсора мыши на число - период времени, за который выпало указанное количество осадков.
R24 - Количество осадков - Количество выпавших осадков за 24 часа, мм.
S - Снежный покров - Высота снежного покрова, см. При наведении курсора мыши на число - состояние снежного покрова и степень покрытия местности в баллах.